Temp
21 21 22 22 22 22 22 23 23 23 23 23 23 23 24 24 24 24 23 23 23 23 23 23 23 23 23 22 22 22 22 22 22 22 22 22 22 22 22 22 22 22 22 22 22 22 22 22 22 21 21 22 22 22 22 22 22 22 22 22 22 21 21 21 21 21 21 21 21 21 21 21 21 21 21 21 21 21 21 21 21 22 22 21 21
21 21 22 22 22 22 22 23 22 23 23 23 23 24 24 23 23 23 23 23 23 23 23 23 23 23 23 22 22 22 22 22 22 22 22 22 22 21 21 21 22 22 22 22 22 22 22 22 22 22 22 22 22 22 21 21 22 22 21 21 21 21 21 21 21 21 21 21 21 21 21 21 21 21 21 21 21 22 21 21 22 22 21 21 21
22 21 22 22 22 21 22 22 22 23 23 23 23 24 24 23 23 23 23 23 23 23 23 23 23 23 22 22 22 22 22 22 22 22 22 22 21 21 21 21 22 22 22 22 22 22 21 22 22 22 22 22 21 21 21 21 21 21 21 21 21 21 21 21 21 21 21 21 21 21 21 21 21 20 21 21 21 22 21 21 21 22 21 21 21
22 22 21 22 21 21 22 22 22 23 23 23 23 23 23 23 23 23 23 23 24 23 23 23 23 23 23 23 22 23 22 22 22 22 22 22 22 21 21 22 22 22 22 22 22 22 21 21 21 21 21 21 21 21 21 21 21 21 21 21 21 21 21 21 21 21 21 21 21 21 21 20 20 20 20 21 21 21 21 21 21 21 21 21 21
23 22 22 22 21 22 22 22 23 23 23 23 23 23 23 23 23 23 23 24 24 23 23 23 23 23 23 23 23 23 22 22 22 22 22 22 22 22 22 22 22 22 22 22 22 22 21 21 21 21 21 21 21 21 21 21 21 21 21 21 21 21 21 21 21 21 21 21 21 21 21 21 20 20 20 21 21 21 21 21 21 21 21 21 21
23 22 22 22 22 22 22 22 23 23 23 23 23 23 23 23 23 23 23 24 23 23 23 23 23 23 23 23 23 23 23 22 22 22 22 22 22 22 22 22 22 22 22 22 22 22 22 22 22 21 21 21 21 21 21 21 21 21 21 21 21 21 21 21 21 21 21 21 21 21 21 21 21 20 20 21 21 21 21 21 21 21 21 21 21
23 22 22 22 22 23 23 23 23 23 23 23 23 23 23 23 23 23 24 24 23 23 23 23 23 23 23 23 23 23 23 22 22 22 22 22 22 22 22 22 22 22 22 22 22 22 22 22 22 21 21 21 21 21 21 21 21 21 21 21 21 21 21 21 22 21 21 21 21 21 21 21 21 21 20 21 20 21 21 21 21 21 21 21 21
23 22 22 22 22 23 23 23 23 23 23 23 23 23 23 23 23 23 24 24 23 23 23 23 23 23 23 23 23 23 23 23 22 22 22 22 22 22 22 22 22 22 22 21 21 22 22 22 22 22 21 21 21 21 21 21 21 21 21 21 21 21 21 22 22 21 21 21 21 21 21 21 21 21 21 21 20 21 21 21 21 21 21 20 20
23 23 23 22 22 23 23 23 23 23 23 23 23 23 23 23 23 23 24 24 23 23 23 23 23 23 23 23 23 23 23 23 22 22 22 22 22 22 22 22 22 22 22 22 22 21 21 22 22 21 21 21 21 21 21 21 21 21 21 21 21 21 21 22 22 22 22 22 21 21 21 21 21 21 21 21 21 21 21 21 21 21 21 20 20
23 23 23 23 23 23 23 23 23 23 23 23 23 23 23 23 23 23 23 23 23 23 23 23 23 23 23 23 23 23 23 23 23 22 22 22 22 22 22 22 22 22 22 22 22 21 22 22 21 21 21 21 21 21 21 21 21 21 21 21 21 21 21 22 22 22 22 22 21 21 21 21 21 21 21 21 20 20 21 20 21 21 21 21 20
23 23 23 23 23 23 23 23 23 23 23 23 23 23 23 23 24 23 23 23 23 23 23 23 23 23 23 23 23 23 23 23 23 22 22 22 22 22 22 22 22 22 22 22 22 22 22 22 22 21 21 21 21 21 21 21 21 21 21 21 21 21 21 22 22 22 22 22 21 21 21 21 21 21 21 21 20 20 20 21 21 21 21 21 21
24 23 23 23 23 23 23 23 23 23 23 23 23 23 23 24 24 24 24 24 23 23 23 23 23 23 23 23 23 23 23 23 23 22 22 22 22 22 22 22 22 22 22 22 22 22 22 22 22 21 21 21 21 21 21 21 21 21 21 21 21 21 22 22 22 22 22 22 22 21 21 21 21 21 21 21 21 21 20 20 21 20 20 21 21
25 24 24 23 23 23 23 23 23 23 23 23 23 23 23 24 24 24 24 24 23 23 23 23 23 23 23 23 23 23 23 23 23 22 22 22 22 22 22 22 22 22 22 22 22 22 22 22 22 22 21 21 22 22 21 21 21 21 21 21 21 22 22 22 22 22 22 21 22 22 21 21 21 21 21 21 21 21 20 21 21 21 20 21 21
25 24 24 23 23 22 23 23 23 23 23 23 23 23 23 24 24 24 24 24 24 23 23 23 23 23 23 23 23 23 23 23 23 22 22 22 22 22 22 22 22 22 22 22 22 22 22 22 22 22 22 22 22 22 22 21 21 21 21 21 21 22 22 22 22 22 22 22 21 22 21 21 21 21 21 21 21 21 20 21 21 21 21 21 21
25 25 24 24 23 22 23 23 23 23 23 23 23 23 23 24 24 24 23 23 24 23 23 23 23 23 23 23 23 23 23 23 23 23 22 22 22 22 22 22 22 22 22 22 22 21 21 22 22 22 22 22 22 21 22 21 21 21 21 21 21 22 21 22 22 22 22 22 21 21 21 21 21 21 21 21 21 21 20 21 21 21 21 21 20
25 25 25 24 23 22 22 23 23 23 23 23 23 23 23 24 23 23 23 23 24 23 23 23 23 23 23 23 23 23 23 23 23 23 22 22 22 22 22 22 22 22 22 22 22 21 21 22 22 22 22 22 21 21 21 21 21 21 21 21 21 22 21 22 22 22 22 22 22 21 21 21 21 21 21 21 21 21 20 21 21 21 21 21 21
25 25 25 24 23 23 23 23 23 23 23 23 23 23 23 23 23 23 23 23 23 23 23 23 23 23 23 23 23 22 23 23 23 23 22 22 22 21 21 22 22 22 22 22 22 22 22 22 22 22 22 21 21 21 21 22 21 21 21 21 22 22 22 22 22 23 22 22 22 21 21 21 21 21 21 21 20 20 20 20 21 21 21 21 21
25 25 25 24 23 24 24 23 23 23 23 23 23 23 23 23 23 23 23 23 23 23 24 23 23 23 23 23 23 23 23 23 23 23 23 22 22 21 22 22 22 22 22 22 22 22 22 22 23 22 22 22 22 22 22 22 22 21 21 21 22 22 22 22 23 23 22 22 22 21 21 21 21 21 20 20 20 20 20 20 20 21 21 21 21
25 25 25 24 24 24 24 23 23 23 23 23 23 23 23 23 23 23 23 23 23 24 23 24 24 23 23 23 23 23 23 23 23 23 23 22 22 22 22 22 22 22 22 22 23 23 23 23 22 22 22 22 22 22 22 22 22 21 21 22 22 22 22 22 23 22 22 22 22 21 21 21 21 21 20 20 20 20 20 20 20 21 21 21 21
25 25 25 24 24 24 24 23 23 23 23 23 23 23 23 23 23 23 23 23 23 24 23 23 23 23 23 23 23 23 23 23 23 23 23 22 22 22 22 22 22 22 22 22 23 23 22 22 22 22 22 22 22 22 22 22 22 22 22 22 22 22 23 23 22 22 22 22 22 21 21 21 21 21 20 20 20 20 20 20 20 20 21 21 21
25 25 24 24 24 24 24 23 23 23 24 24 23 23 23 23 23 23 23 23 23 23 23 23 23 23 23 23 23 23 23 23 23 23 22 22 22 22 22 22 22 22 22 22 23 23 22 22 22 23 22 22 23 22 23 23 22 22 22 22 22 22 23 23 23 23 23 22 21 21 21 21 21 21 21 20 20 20 20 20 20 20 20 21 21
25 25 24 24 24 24 23 23 23 23 23 24 23 23 23 23 23 23 23 23 23 23 23 23 23 23 23 23 23 23 23 23 22 22 22 22 22 22 22 22 22 22 22 23 23 23 23 23 23 23 23 23 23 23 23 23 23 23 23 23 23 23 23 23 23 23 23 22 22 22 21 22 21 21 21 21 20 21 20 20 20 20 20 21 21
25 25 24 24 24 24 23 23 23 23 23 23 23 23 23 23 23 23 23 23 23 23 23 23 23 23 23 23 23 23 23 23 23 23 22 22 22 22 22 22 22 23 23 23 23 23 23 23 23 23 23 23 22 23 23 23 24 23 23 24 24 24 23 23 23 23 23 22 22 22 21 21 21 21 21 21 20 20 20 20 20 20 20 21 21
26 25 24 24 24 24 23 23 23 23 23 23 23 23 23 23 23 23 23 23 23 23 23 23 23 23 22 23 23 23 23 23 23 23 23 23 23 23 23 22 22 23 23 23 23 23 23 23 23 23 23 23 22 23 23 24 24 24 24 24 24 24 24 25 25 24 23 22 22 22 22 22 22 21 21 21 21 20 20 20 20 20 20 20 21
26 26 25 24 24 24 24 23 23 23 23 24 24 24 23 24 24 24 24 24 24 23 23 23 23 23 23 23 24 24 24 24 23 23 23 23 23 23 23 23 23 23 23 23 24 24 24 23 24 23 23 23 23 23 23 24 24 24 24 25 24 24 25 25 25 25 24 22 22 22 22 22 22 22 21 21 21 20 20 20 20 20 20 20 20
26 26 25 24 24 24 24 24 23 23 23 24 24 24 24 24 24 24 24 24 24 24 23 24 23 23 23 24 24 24 24 24 24 23 23 23 23 24 24 24 24 24 24 24 24 24 24 24 24 23 23 23 23 23 23 23 24 24 24 24 25 25 25 26 25 25 24 23 22 23 22 22 22 21 21 21 21 21 20 20 20 20 20 20 20
26 26 25 25 24 24 24 24 23 23 23 24 24 24 24 24 24 24 24 24 24 24 24 24 24 23 23 24 24 24 24 24 24 24 23 24 24 24 24 24 24 24 24 24 24 24 24 25 25 24 23 24 24 24 23 23 24 24 25 25 25 25 25 26 25 25 25 23 23 23 22 22 21 21 21 21 21 21 21 21 20 20 20 20 20
26 26 26 25 24 24 24 24 24 23 23 24 24 24 24 24 24 24 24 24 24 24 24 24 24 23 23 23 24 24 25 25 24 24 24 24 24 24 24 24 24 24 24 24 24 24 24 24 24 24 24 24 24 24 24 24 24 24 25 25 25 25 25 26 25 25 25 24 23 23 23 22 22 21 21 21 21 21 21 21 21 20 20 20 20
26 26 26 25 25 25 24 24 24 24 24 24 24 24 24 24 24 24 24 24 24 24 24 24 24 24 23 23 23 24 24 25 24 24 24 24 24 24 24 24 24 24 24 24 24 24 24 24 24 24 24 24 24 24 24 24 24 24 25 25 25 25 25 26 25 25 25 24 23 23 23 23 22 22 21 21 21 21 21 21 21 20 20 21 20
26 26 26 25 25 25 24 24 24 24 24 24 24 24 24 24 24 24 24 24 24 24 24 24 24 24 24 23 23 23 24 24 24 24 24 24 24 24 24 24 24 24 24 24 24 24 24 24 24 24 24 24 24 24 24 24 24 24 24 25 25 26 25 26 26 26 26 25 24 23 23 23 22 22 22 22 21 21 21 21 21 21 20 20 20
26 26 26 26 25 25 25 24 24 24 24 24 24 24 24 24 24 24 24 24 24 24 24 24 24 24 24 23 23 23 23 24 24 24 24 24 24 24 24 24 24 24 24 24 24 24 24 24 24 24 24 24 24 24 24 25 25 24 24 25 25 25 25 26 26 26 26 25 24 23 22 22 23 23 22 22 22 21 21 21 21 21 20 20 20
27 26 26 26 25 25 25 24 24 24 24 24 24 24 24 24 24 24 24 24 24 24 24 24 24 24 24 23 23 23 23 23 23 23 23 24 24 24 24 24 24 24 24 24 24 23 23 23 23 23 23 23 24 24 24 24 25 24 25 25 25 25 25 26 27 26 26 25 24 23 22 22 23 22 22 22 22 21 21 21 21 20 20 20 20
27 27 26 26 26 25 25 24 24 24 23 24 24 24 24 24 24 24 24 24 23 24 24 24 24 24 23 23 23 23 23 23 23 23 23 24 24 24 24 24 24 24 24 23 23 23 24 24 23 23 23 23 24 24 24 24 24 24 25 25 25 25 26 26 26 26 26 26 25 23 22 22 22 22 22 22 22 21 21 21 20 20 20 20 20
27 27 27 26 26 26 25 25 24 24 23 24 24 24 24 24 24 24 24 23 23 24 24 24 24 24 23 23 23 23 22 23 23 23 23 24 24 24 24 24 24 24 23 23 23 24 24 24 24 24 24 24 24 24 23 24 24 24 25 25 25 25 26 26 26 26 26 26 25 24 23 22 22 22 22 22 21 21 21 20 20 20 20 20 20
27 27 27 26 26 26 26 25 25 24 23 23 24 24 24 24 24 24 24 23 24 24 24 24 24 24 24 23 23 22 22 23 23 23 23 24 24 24 24 24 24 23 24 23 23 24 24 24 24 24 24 24 24 23 23 24 24 24 24 25 25 25 26 26 26 26 26 25 25 24 23 23 22 22 22 22 22 21 21 20 20 20 20 20 20
27 27 27 26 26 26 26 26 25 24 24 23 24 24 24 24 24 24 24 24 24 24 24 25 24 24 24 24 23 22 23 23 23 23 23 24 24 24 24 24 23 23 24 23 23 24 24 24 23 23 23 24 24 24 24 24 24 24 24 25 25 25 26 26 26 26 25 24 25 24 23 23 23 22 22 22 22 22 21 21 20 20 20 20 20
27 26 26 26 26 26 25 26 26 25 24 24 24 24 23 23 24 24 24 24 24 24 24 25 25 25 24 24 23 23 23 23 23 23 23 24 24 24 24 24 23 24 24 23 24 24 24 24 23 23 23 23 24 24 24 24 25 24 24 25 25 25 26 26 26 26 25 24 25 24 24 23 23 23 23 23 22 22 21 21 21 21 20 20 20
26 26 26 25 25 25 25 25 26 25 24 24 24 24 23 23 23 24 24 24 24 24 25 24 25 25 25 24 24 23 23 23 23 23 23 24 24 24 24 24 23 24 23 23 24 24 24 24 23 23 23 23 24 24 24 25 25 25 25 25 25 25 25 25 26 26 25 25 25 24 24 24 23 23 23 23 23 22 22 21 21 21 21 20 20
26 26 25 25 25 25 25 25 25 25 25 24 24 23 23 23 23 24 24 24 24 24 24 24 25 25 25 24 23 23 23 23 23 23 23 24 24 24 24 24 23 24 23 24 24 24 24 23 23 23 23 23 23 24 24 24 25 25 25 25 25 24 25 25 25 26 26 25 25 25 25 24 24 24 23 23 23 22 22 21 21 21 21 21 20
26 26 25 25 25 25 25 24 24 25 25 24 24 24 24 24 24 24 24 24 24 24 24 24 25 25 25 24 23 23 23 23 23 23 23 23 24 24 24 23 24 24 23 24 24 24 23 23 23 23 22 23 23 23 24 24 25 25 24 24 24 24 25 25 25 26 26 25 25 25 25 25 25 24 24 23 23 22 22 21 21 21 21 21 21
26 26 25 25 25 25 24 24 24 24 24 24 24 24 24 24 24 25 25 25 24 24 24 24 25 25 25 24 23 23 23 23 23 23 23 23 23 24 24 23 24 24 23 24 24 23 23 23 23 23 23 23 24 24 24 24 25 24 24 24 24 24 25 25 25 26 26 25 25 24 25 25 25 24 24 23 23 22 22 22 22 22 21 21 21
26 26 25 25 25 25 25 24 24 24 24 24 24 24 25 25 25 25 25 25 25 24 24 25 25 25 25 24 23 24 23 23 23 23 23 23 23 24 24 23 24 24 23 23 23 23 23 23 24 23 23 24 24 24 24 24 25 25 25 25 24 24 25 25 25 26 26 26 25 25 25 25 25 25 24 24 23 23 22 22 22 22 21 21 21
26 26 25 25 25 25 25 24 24 24 24 24 24 24 24 24 25 25 25 26 25 25 25 25 25 25 25 23 23 24 23 23 23 23 23 23 23 24 24 24 23 24 23 23 23 23 23 23 24 24 24 24 24 24 23 24 26 25 25 25 25 25 25 25 26 26 26 26 25 25 25 25 25 24 24 24 24 23 23 22 22 21 21 21 22
27 26 26 25 25 25 25 25 24 24 24 24 24 24 24 24 24 25 25 26 26 25 25 25 25 25 25 24 24 24 24 24 24 24 24 23 23 24 24 24 24 23 23 23 23 23 23 23 24 24 24 24 25 24 24 24 25 25 25 25 26 26 25 25 26 26 26 26 25 25 25 25 25 24 25 25 24 23 23 22 22 21 21 21 22
27 27 26 26 25 25 25 24 24 24 24 24 24 24 24 24 24 24 24 25 25 25 25 25 25 25 25 25 24 24 24 24 24 24 24 24 23 24 24 24 24 23 24 24 24 23 23 24 24 24 24 24 25 25 24 24 24 24 25 25 25 26 26 26 26 25 26 26 25 25 25 25 25 24 24 24 23 23 23 22 22 21 21 21 22
28 27 27 26 26 25 25 24 24 24 24 24 24 24 24 24 24 24 24 25 25 25 25 25 26 25 26 26 25 24 24 24 24 24 24 24 24 24 24 24 24 24 24 24 24 24 24 24 24 24 24 24 24 25 25 24 24 23 24 25 24 25 26 26 26 25 25 26 26 25 25 25 25 24 24 24 24 24 23 23 22 22 22 22 22
28 27 27 27 26 25 25 24 24 24 24 24 24 24 24 24 24 24 25 25 25 25 25 25 26 26 26 26 26 25 24 24 25 24 24 24 24 24 24 24 24 24 24 24 24 24 24 24 24 24 24 23 23 25 25 24 24 23 24 24 24 25 25 26 26 25 25 25 25 25 25 25 25 25 25 25 25 24 24 23 23 22 22 22 22
28 28 27 27 26 26 25 24 24 24 24 24 24 24 24 24 24 25 25 25 26 26 25 25 26 26 26 26 26 25 24 24 25 25 24 24 24 24 24 24 24 24 24 24 24 24 24 24 24 24 23 23 23 24 25 25 24 24 24 24 24 25 25 25 26 26 25 25 25 25 26 25 25 25 25 25 25 25 23 23 23 23 22 22 22
29 28 28 27 26 26 25 25 24 24 24 24 24 23 24 24 24 25 25 25 26 26 26 25 25 25 25 26 26 25 25 24 25 25 24 24 24 24 24 24 24 24 24 24 24 24 24 24 23 23 23 23 23 23 24 24 25 25 24 24 24 24 25 25 25 25 26 26 25 26 26 25 25 25 25 25 25 25 24 24 23 23 23 22 22
29 29 28 28 27 26 25 25 25 24 24 24 24 24 24 24 24 25 25 25 25 26 26 26 25 25 25 25 25 25 25 25 25 25 24 24 24 24 24 24 24 24 24 24 24 24 24 24 24 23 23 23 23 23 23 23 24 25 24 24 24 24 25 25 25 25 26 26 26 27 27 26 26 25 25 25 25 24 24 24 23 23 23 23 22
29 29 28 28 27 26 26 25 25 25 24 24 24 24 24 24 24 25 25 25 25 25 26 26 25 25 25 25 25 25 25 25 25 25 25 24 24 24 24 24 24 24 24 24 24 24 25 24 24 23 23 23 23 23 23 23 24 24 24 24 24 24 25 25 25 26 26 26 26 27 28 27 27 26 25 25 25 24 24 23 23 24 23 23 23
Height
814 814 816 816 818 819 820 820 822 822 824 825 826 827 827 829 830 832 833 834 835 837 838 839 840 840 841 842 843 843 843 843 843 844 844 845 846 846 846 846 846 846 846 846 846 846 847 846 847 847 846 846 846 846 846 846 846 846 846 847 847 847 847 847 847 847 848 848 848 849 849 849 850 851 852 852 852 852 852 852 852 853 853 852 853
813 815 817 818 819 821 822 821 823 824 825 826 827 828 828 830 832 833 834 836 837 838 840 840 841 842 843 843 844 844 844 844 845 845 846 847 847 848 847 847 847 847 846 847 847 847 848 847 848 847 847 847 846 847 847 847 847 847 847 847 848 848 848 848 848 848 849 849 849 850 850 850 851 852 853 854 853 853 853 853 854 854 854 853 854
813 817 819 820 822 822 822 823 824 825 826 827 828 829 830 832 833 835 836 837 838 840 841 841 842 843 844 844 845 845 846 846 846 847 847 848 849 849 848 849 848 848 848 848 848 848 848 848 849 848 848 847 847 848 848 848 848 848 848 849 849 849 849 849 849 849 850 850 850 851 851 852 852 853 854 855 854 854 854 854 855 855 854 854 855
814 817 819 821 823 823 823 825 825 825 826 827 829 830 831 833 834 836 837 839 840 841 842 843 844 844 845 846 846 846 847 847 848 848 849 849 850 850 850 850 849 849 849 849 849 849 849 849 849 849 849 848 848 848 849 849 849 849 850 850 850 850 850 850 851 851 851 851 852 852 853 854 855 855 856 856 855 855 855 855 855 855 855 856 856
815 816 819 820 822 823 824 825 825 826 827 828 830 831 833 834 836 837 839 840 841 842 843 844 845 846 847 847 848 848 848 849 849 850 850 850 851 851 851 850 850 850 850 850 850 850 850 850 850 850 849 849 849 850 850 850 850 851 851 851 851 851 851 851 852 852 852 853 854 854 855 855 856 856 856 856 856 856 856 856 856 856 857 857 857
815 816 819 820 822 823 824 825 826 827 828 829 831 833 835 836 837 839 840 842 843 844 845 846 846 847 848 849 849 849 850 850 850 851 851 851 851 852 851 851 851 851 851 851 851 851 851 851 851 850 850 850 850 851 851 851 852 852 852 852 852 852 852 852 852 853 854 855 855 855 856 856 856 857 857 857 857 857 857 857 857 857 858 858 858
815 817 820 821 823 823 824 826 827 827 829 831 833 835 836 838 839 840 842 843 844 845 846 847 848 849 850 850 851 851 851 851 852 852 852 852 852 852 852 852 852 852 852 852 852 852 852 852 851 851 851 851 851 852 852 852 853 853 853 853 853 853 853 853 853 854 855 855 856 856 857 857 857 858 857 858 858 858 858 857 858 859 859 859 860
816 818 820 822 823 824 825 826 828 829 831 833 835 836 837 839 840 841 843 844 846 846 848 849 850 850 851 852 852 852 852 853 853 853 853 853 853 853 853 853 853 853 853 853 853 853 853 852 852 852 852 852 852 853 853 854 854 854 854 854 854 854 854 854 854 854 855 856 856 856 857 857 858 858 858 858 858 859 859 859 859 860 860 860 861
817 818 820 822 823 825 826 828 829 831 833 835 836 838 839 840 841 843 844 845 847 848 849 850 851 852 852 853 853 854 854 854 854 854 854 854 854 854 854 854 854 854 854 854 854 853 853 853 853 853 853 853 853 854 854 855 855 854 853 854 854 854 854 854 854 855 856 857 857 856 857 857 859 859 859 859 859 859 859 860 860 860 861 862 862
818 818 821 822 824 826 828 829 830 832 834 836 838 839 840 841 842 844 845 847 848 849 850 851 852 853 853 854 854 855 855 855 855 855 855 855 855 855 855 855 854 854 854 854 854 854 854 854 854 854 854 854 854 854 855 855 854 854 854 854 854 854 854 854 855 856 857 858 858 857 858 858 860 860 860 860 860 860 860 861 861 861 862 863 863
818 819 821 822 825 826 828 830 831 834 836 838 839 840 841 842 844 845 847 848 849 850 851 852 853 854 854 855 855 856 856 856 856 856 856 856 856 855 855 855 855 855 855 855 855 855 855 855 855 855 855 854 855 855 855 855 855 854 855 855 855 854 854 854 855 856 857 859 859 859 860 860 860 861 860 861 861 861 861 861 862 862 863 864 864
819 820 821 823 825 827 829 830 833 836 837 839 840 841 842 843 845 846 848 849 850 851 852 853 854 855 855 856 856 856 857 856 857 856 856 856 856 856 856 856 856 856 856 856 856 856 856 856 856 856 856 855 855 855 856 856 856 855 855 855 855 855 855 855 856 857 858 859 859 859 860 859 859 860 861 861 862 862 862 862 863 863 864 864 865
821 822 824 826 827 829 830 833 835 837 839 840 841 842 843 845 846 847 849 850 851 852 853 854 855 855 856 856 857 857 857 857 857 857 857 857 857 857 856 857 856 856 856 856 856 856 856 856 857 857 856 856 856 856 856 857 857 856 856 856 856 855 855 855 857 857 858 858 859 860 859 859 859 860 861 862 862 863 863 863 864 864 865 865 866
821 824 826 828 829 832 833 836 838 839 840 841 842 843 844 846 847 848 850 850 852 853 853 855 855 856 856 857 857 858 858 858 858 858 858 858 858 858 857 857 857 857 857 857 857 857 857 857 858 858 858 857 857 857 857 857 857 857 857 856 856 856 856 857 857 858 858 858 859 860 859 860 860 861 862 862 863 863 863 864 865 866 866 867 867
822 824 827 829 831 833 835 837 838 840 841 842 843 844 845 847 848 849 850 851 852 853 854 855 856 856 857 858 858 858 859 859 859 858 859 858 858 858 858 858 858 858 858 858 858 858 858 858 859 858 859 858 858 858 857 858 857 857 857 857 857 856 857 858 858 858 859 859 859 860 860 860 861 862 862 863 863 864 864 865 866 866 867 868 868
822 824 827 829 832 834 836 838 839 840 841 843 844 845 846 847 849 850 851 852 853 854 855 856 856 857 857 858 859 859 859 859 859 859 859 859 859 859 859 859 859 859 859 859 859 859 859 859 859 859 860 859 859 859 858 858 858 858 858 858 858 857 858 858 859 859 860 860 860 860 861 861 861 862 863 863 864 864 865 866 866 867 868 868 869
822 825 827 829 832 834 836 838 839 841 842 843 844 845 847 848 850 850 852 853 853 855 855 856 857 857 858 858 859 859 859 859 860 860 860 860 860 860 860 860 860 860 859 859 859 860 860 860 860 860 860 860 860 859 859 859 858 858 858 858 858 858 859 859 860 860 860 860 861 861 861 861 862 862 863 864 864 865 866 866 867 868 868 869 869
823 825 827 829 831 834 836 837 839 841 842 844 845 846 847 849 850 851 852 853 854 855 856 857 857 858 858 859 859 859 860 860 860 860 860 860 860 860 860 860 860 860 860 860 860 860 861 860 860 860 860 860 860 860 860 859 859 859 859 859 859 859 859 859 861 861 861 861 861 861 862 863 863 863 863 864 865 865 866 867 868 868 868 869 870
823 825 827 829 831 834 835 837 839 841 842 844 845 847 848 849 850 852 853 854 855 855 856 857 857 858 858 859 859 859 860 860 860 861 860 861 861 861 860 861 861 861 861 860 861 861 861 861 861 861 861 861 861 860 860 860 860 860 860 860 860 860 860 860 861 862 862 862 863 862 863 863 863 864 864 865 865 866 867 867 868 869 869 869 870
823 825 827 830 831 833 835 837 839 840 842 844 846 847 848 850 851 852 853 854 855 856 857 857 858 858 859 859 859 860 860 860 861 861 861 861 861 861 861 861 861 861 861 861 861 861 861 861 861 861 861 861 861 861 861 860 860 860 860 860 860 860 860 861 862 862 862 863 863 863 864 864 864 864 865 865 866 867 867 868 868 869 869 869 870
823 825 827 829 831 833 834 836 838 840 842 843 846 847 848 850 851 852 853 855 855 856 857 857 858 858 859 859 859 860 861 861 861 862 861 862 861 861 861 861 861 861 861 861 861 861 862 862 862 862 862 862 862 861 861 861 860 860 860 860 860 860 861 862 862 862 863 862 863 864 864 864 864 864 865 866 866 867 868 868 869 869 869 870 870
821 824 826 828 830 832 834 836 838 839 841 843 845 847 848 850 851 852 854 855 855 856 856 857 858 858 859 859 860 861 861 862 861 862 862 862 862 862 862 862 862 862 862 861 861 862 862 862 862 862 862 862 862 862 861 861 861 860 860 860 861 861 861 862 862 862 862 861 862 863 863 863 864 864 865 865 866 867 868 868 869 869 870 870 871
820 822 825 827 829 831 833 835 837 839 841 843 845 846 848 849 851 852 853 855 855 856 856 857 858 858 859 859 860 861 861 861 861 862 862 862 862 862 862 862 862 862 862 862 862 862 862 862 862 862 862 862 862 862 861 861 862 861 861 861 861 862 862 862 862 862 862 861 861 862 862 863 863 864 865 865 866 867 867 868 869 869 870 870 871
818 821 824 826 828 830 832 834 836 838 840 842 844 846 847 849 851 852 853 854 855 855 856 857 857 858 859 859 860 860 861 861 861 861 862 862 862 862 862 862 862 862 862 862 862 862 862 862 862 862 862 862 862 862 861 861 862 861 861 862 862 862 862 862 862 862 862 861 861 861 862 863 863 864 864 865 866 866 867 868 869 869 870 871 871
817 820 822 825 827 829 831 834 836 838 840 842 843 845 847 848 850 851 852 853 854 855 856 856 857 857 858 859 860 860 861 861 862 862 862 863 862 862 862 862 863 863 863 863 863 863 862 863 862 862 862 862 862 862 862 862 862 862 862 862 862 862 862 861 862 862 862 861 861 861 861 862 863 863 864 865 866 866 867 868 869 870 870 871 872
817 819 821 823 826 828 830 833 835 837 839 841 842 844 846 848 849 850 851 852 853 854 855 856 856 857 858 859 859 860 860 861 861 862 862 862 862 862 862 862 863 863 863 863 863 863 862 862 862 862 862 863 863 862 862 862 862 862 862 862 862 862 862 862 862 862 862 862 861 861 862 862 862 863 864 865 865 866 867 868 869 870 871 872 872
815 818 820 823 825 827 830 832 834 836 838 840 842 844 845 847 848 849 851 852 853 854 854 855 856 856 857 858 859 859 860 860 861 861 862 862 862 862 862 863 862 863 863 863 863 863 863 862 862 863 863 863 863 862 862 862 862 862 862 862 862 862 862 862 862 862 862 862 861 861 861 862 862 862 863 865 865 866 867 868 869 870 871 871 872
814 817 818 821 823 826 828 831 833 835 837 839 841 843 844 846 847 849 850 851 852 853 853 854 855 856 857 857 858 859 859 860 860 861 862 862 862 862 862 863 862 863 862 863 863 863 863 862 862 862 863 863 862 862 861 861 862 862 862 862 862 862 862 862 862 862 862 862 861 860 861 862 862 862 863 864 865 866 867 868 868 869 870 870 872
813 815 817 819 822 825 827 830 832 834 836 838 840 842 844 845 846 848 849 850 851 852 853 854 855 855 856 856 857 858 858 859 860 860 861 862 862 862 862 862 862 863 862 863 863 863 863 862 862 862 862 862 862 861 861 861 861 862 862 862 862 862 862 862 861 861 861 862 861 860 861 861 862 862 862 864 865 866 866 867 868 868 869 870 871
811 813 816 818 821 824 826 828 830 833 835 837 839 841 842 844 845 847 848 849 850 851 852 853 854 854 855 856 856 857 858 859 859 860 861 861 862 862 862 862 863 863 863 862 862 863 862 862 862 862 862 862 862 861 860 860 861 862 862 862 862 862 862 861 861 861 861 861 861 861 861 861 861 861 862 863 864 865 866 866 867 868 869 870 871
810 812 815 817 820 823 825 827 830 832 834 836 838 840 841 843 844 846 847 848 849 850 851 852 852 853 854 854 855 856 857 858 859 859 860 861 861 862 862 862 862 862 862 862 862 862 862 862 862 862 862 862 862 861 860 860 860 861 862 862 862 861 862 861 860 860 860 861 861 861 861 861 861 861 861 863 864 865 866 866 867 868 870 870 871
809 810 813 816 819 821 824 826 828 830 833 835 836 838 840 841 843 844 846 847 848 849 850 851 851 852 853 853 854 855 856 857 858 859 859 860 861 861 862 862 862 862 862 862 862 862 862 862 862 862 862 861 861 861 861 860 860 861 861 861 861 861 861 860 859 860 860 860 861 861 861 861 861 861 862 863 864 865 865 866 867 868 869 870 870
806 809 812 814 817 820 822 825 827 829 831 833 835 837 839 840 842 843 845 846 847 848 849 850 850 851 852 852 853 854 855 857 857 858 859 859 860 861 861 861 862 862 862 862 862 862 862 862 862 862 861 861 861 861 861 860 860 861 860 861 861 861 860 860 860 860 860 860 861 861 861 861 861 862 863 863 864 864 865 865 866 868 869 869 870
804 807 810 812 816 818 821 823 826 828 829 832 834 835 837 839 841 842 843 844 845 847 847 849 849 850 851 851 852 853 854 856 856 857 858 858 859 860 860 861 861 861 861 861 861 861 861 861 861 861 861 861 861 861 861 860 860 860 860 860 860 860 860 859 860 860 860 860 861 862 862 862 861 862 862 863 864 864 864 864 866 868 868 869 870
802 805 808 810 814 816 819 821 824 826 828 830 832 834 836 837 839 840 842 843 844 845 846 847 848 849 850 851 852 853 854 855 856 857 857 858 858 859 859 860 860 860 861 861 861 861 861 861 861 861 861 860 860 860 860 860 859 860 860 860 860 860 859 860 861 860 860 861 861 862 862 862 862 862 863 864 864 864 864 864 866 868 869 869 870
801 804 806 809 812 814 817 819 822 825 827 829 831 833 835 836 838 839 840 842 843 844 845 846 847 848 849 850 851 852 853 854 855 856 856 857 857 858 859 859 859 859 860 860 860 860 860 860 860 860 860 860 860 859 859 859 859 859 859 859 859 859 859 860 860 860 861 862 862 862 862 863 863 863 864 865 865 865 865 865 866 868 868 869 869
800 803 805 807 810 812 815 817 820 823 825 827 830 832 833 835 837 838 839 840 842 843 844 845 846 847 848 849 850 851 852 853 854 855 855 856 857 857 858 858 859 859 859 859 859 859 859 859 859 859 859 859 859 858 859 859 858 858 859 859 859 860 860 861 860 860 862 863 862 863 863 863 864 864 865 866 866 866 865 865 867 867 868 868 869
799 802 804 806 808 811 814 815 818 821 823 826 828 830 832 834 835 837 838 839 840 841 842 843 844 845 846 848 848 849 851 851 853 853 854 855 856 856 857 857 858 858 859 859 858 858 858 859 859 859 858 858 858 858 858 858 858 858 858 859 859 860 860 861 861 861 862 862 863 863 863 864 864 865 865 866 867 867 867 866 866 867 868 868 869
797 800 802 805 807 809 811 814 816 818 821 824 826 829 831 833 834 835 837 838 839 840 841 842 842 844 845 846 847 848 850 850 851 852 853 854 855 856 856 857 857 858 858 858 858 858 858 858 858 858 858 858 858 858 858 858 858 858 859 859 860 861 861 861 862 861 861 862 863 863 863 864 864 865 865 866 866 867 867 866 867 867 868 868 869
795 798 800 803 805 807 809 812 814 816 819 822 824 827 828 830 832 833 834 835 837 838 839 840 840 842 843 844 845 846 848 849 850 851 852 853 854 855 855 856 856 857 857 857 857 858 858 858 858 858 858 858 858 858 858 858 858 859 859 860 860 861 861 861 861 861 861 862 863 863 863 864 864 865 865 865 866 867 867 867 867 868 868 868 868
792 795 797 800 802 804 807 809 811 814 816 819 821 823 824 826 828 830 831 832 834 835 836 837 838 840 841 843 844 845 847 848 849 850 851 852 853 854 854 855 855 856 856 856 857 857 857 857 857 857 857 857 858 858 858 859 859 859 859 860 860 861 861 861 861 860 860 862 863 863 863 863 864 865 865 866 866 867 867 868 868 868 869 868 868
788 791 794 797 799 801 804 806 809 811 813 816 817 819 821 823 825 826 828 830 831 833 834 835 836 838 839 840 842 844 845 846 848 849 850 851 851 853 853 854 854 855 855 855 856 856 856 856 856 857 857 857 857 857 858 858 857 857 858 859 860 861 861 861 861 861 860 861 863 863 863 864 864 865 865 866 866 867 867 867 868 868 869 869 869
784 788 791 794 796 798 801 803 806 808 810 813 814 816 818 820 823 824 826 827 829 830 832 833 834 836 837 838 840 841 843 844 846 847 848 849 850 851 852 852 853 853 854 854 855 855 855 855 855 856 856 856 857 857 858 857 857 858 858 859 859 859 862 862 861 861 860 861 863 863 863 864 864 865 866 866 867 867 868 868 868 868 869 869 869
780 783 787 790 792 795 797 800 803 805 807 809 811 813 816 819 821 823 824 826 827 829 830 831 832 834 835 836 837 839 841 843 844 845 847 848 849 850 850 851 851 852 853 853 853 854 854 854 854 855 855 855 856 857 858 858 857 858 858 858 857 858 862 862 860 861 861 862 863 862 863 864 865 866 866 866 867 868 868 868 868 868 869 869 869
775 778 782 785 788 791 794 797 800 802 804 806 808 812 814 817 819 822 824 825 826 826 827 829 830 831 833 834 835 837 839 841 842 844 845 846 847 848 849 850 850 851 851 852 852 853 853 853 854 854 855 855 855 855 857 858 858 858 857 857 859 859 859 857 858 861 861 861 863 863 863 864 865 866 866 866 867 868 868 869 869 869 869 869 870
770 774 778 781 785 788 791 794 797 799 802 804 806 809 812 814 816 818 820 821 822 823 824 825 827 829 830 832 834 835 836 838 840 842 843 844 845 846 847 848 849 849 850 851 851 851 852 852 853 853 854 854 855 855 856 858 858 858 858 857 859 859 857 856 858 862 862 861 862 863 864 864 865 866 867 867 867 868 868 869 869 869 869 870 870
766 770 774 778 781 784 787 791 794 796 799 801 804 806 809 811 813 814 816 817 818 820 821 823 825 826 828 830 832 833 834 836 838 839 841 842 843 844 845 846 847 848 848 849 849 850 850 851 852 852 853 854 855 855 855 857 858 859 859 858 858 858 858 858 858 860 863 863 862 863 863 864 865 865 866 867 867 867 868 869 869 869 869 870 870
762 767 770 774 777 781 784 787 790 793 796 799 801 803 806 808 810 811 813 815 816 818 820 821 823 825 826 828 829 831 832 833 836 837 838 840 841 842 843 844 845 846 847 847 848 848 849 849 850 851 852 853 854 855 855 855 856 857 858 859 859 859 859 859 858 858 860 862 862 862 862 863 864 865 865 866 866 866 868 869 869 869 869 870 870
759 762 765 769 773 777 781 783 787 790 793 795 798 800 803 805 807 809 811 812 814 816 818 820 821 823 824 826 827 829 830 831 833 835 836 837 838 839 840 841 843 844 845 845 846 847 847 848 849 850 851 852 853 854 854 855 855 855 857 858 859 859 859 859 859 859 858 859 860 860 861 863 863 864 865 865 866 866 867 868 869 869 869 870 870
755 759 762 766 770 774 777 780 783 786 789 792 795 797 800 802 804 806 808 810 812 814 816 818 819 821 823 824 825 827 828 829 831 832 834 835 836 837 838 839 841 842 843 844 844 845 845 846 847 848 849 850 852 852 853 854 854 854 856 858 858 858 859 858 858 859 858 859 859 857 858 860 861 862 864 864 865 866 867 867 868 869 869 870 871
752 756 759 763 766 770 773 776 779 783 786 788 792 795 797 799 801 803 805 807 810 812 814 815 816 818 820 822 824 825 826 827 828 830 831 832 834 835 836 837 838 840 841 841 842 843 844 844 845 847 848 849 850 851 852 853 854 854 855 856 857 857 858 858 857 857 857 858 859 856 854 855 857 859 862 864 865 865 867 868 868 868 869 870 870
Wind_Speed
17 20 23 26 25 24 27 27 25 24 23 23 24 25 26 25 24 24 24 23 21 20 20 19 19 18 17 16 15 15 15 14 14 14 14 14 14 14 13 13 13 13 13 12 11 10 10 10 9 9 9 9 9 10 9 9 9 9 9 9 8 9 9 9 9 9 10 10 10 12 12 12 13 12 10 10 11 11 11 10 10 10 12 12 12
21 20 23 25 25 23 25 25 24 24 24 24 25 25 25 24 23 23 22 21 20 20 20 19 18 17 17 16 15 15 15 14 14 14 14 14 14 13 13 14 13 13 13 12 11 10 9 9 9 9 9 9 9 9 9 8 8 9 9 9 8 9 9 9 10 9 10 11 11 12 12 12 12 12 10 10 10 11 11 10 8 9 11 12 12
22 22 24 25 24 24 25 25 24 24 24 24 24 25 24 22 22 21 21 20 20 20 19 18 18 17 16 16 15 15 15 14 14 13 13 13 13 13 14 13 13 13 12 11 10 10 9 9 8 8 8 8 8 8 8 8 8 9 9 9 9 8 8 8 9 9 9 10 12 12 12 11 10 10 9 9 10 10 11 10 9 10 12 13 12
21 21 24 25 23 24 26 25 24 24 24 23 24 23 22 22 21 21 20 20 20 20 18 18 18 17 16 16 15 15 14 14 13 13 13 13 12 13 13 12 12 13 12 11 11 10 10 9 8 8 8 8 8 8 8 8 8 8 8 8 8 8 8 8 8 8 9 9 11 12 11 10 9 10 9 9 10 9 10 10 10 11 12 12 12
20 20 22 23 24 26 26 25 24 24 23 23 23 22 22 21 21 21 20 20 21 19 19 18 17 17 16 15 15 14 14 13 13 13 12 12 11 12 12 11 11 12 11 11 11 10 10 9 8 8 8 7 7 7 7 7 8 8 8 7 7 8 8 7 7 7 8 9 10 10 10 10 9 9 9 9 9 9 10 11 10 11 11 11 11
20 20 20 21 22 25 26 24 24 24 23 22 22 22 21 21 21 21 20 21 20 19 19 18 17 16 16 15 15 14 13 13 12 12 11 11 11 11 11 11 10 11 11 10 10 10 10 9 9 8 8 8 7 7 7 7 7 7 8 7 6 7 7 7 7 7 8 9 9 9 8 9 8 8 8 9 9 9 10 11 10 10 10 10 11
20 20 20 20 20 24 26 23 23 23 22 22 22 21 21 21 21 21 22 21 19 19 19 17 17 16 16 15 14 14 13 13 12 11 11 10 10 10 10 10 10 10 10 9 9 9 9 9 9 9 8 8 7 7 7 7 7 7 7 6 6 6 7 7 7 8 8 8 8 9 9 8 8 7 8 9 9 9 9 10 10 10 10 10 10
20 20 20 20 21 24 25 23 23 22 21 21 21 21 21 21 21 21 22 21 20 19 18 17 16 15 15 15 14 13 12 12 11 11 10 10 10 10 9 9 9 10 9 9 9 9 9 9 9 9 9 8 8 8 8 7 7 7 6 6 7 6 6 7 8 9 9 8 8 8 9 9 8 7 8 9 9 9 9 9 10 9 9 10 9
20 21 20 19 22 25 24 23 22 21 20 20 21 21 21 21 21 21 21 21 20 18 17 16 15 15 15 14 13 12 12 11 10 10 9 9 9 9 9 9 9 9 9 9 8 8 8 8 9 9 9 9 8 8 8 8 7 7 6 6 6 6 6 7 9 9 9 9 7 6 8 10 9 7 8 10 9 9 8 8 8 8 9 9 8
20 21 20 18 22 24 23 23 22 21 20 20 21 21 21 21 21 20 20 20 19 18 17 16 15 14 13 13 12 11 11 10 9 9 9 9 9 9 8 8 8 8 8 8 8 8 8 8 8 8 9 9 9 8 9 9 7 6 7 7 6 7 6 7 9 8 8 10 7 6 8 9 9 7 8 10 9 8 8 9 8 7 9 8 8
20 20 20 19 21 22 22 22 21 21 20 21 21 21 21 21 21 20 20 19 18 17 16 16 15 13 13 12 11 11 10 9 9 9 9 9 9 9 8 8 8 8 8 8 7 7 7 8 8 8 9 9 9 9 9 9 7 6 7 7 7 7 7 9 8 6 9 9 7 7 9 10 10 8 8 10 9 8 9 10 9 8 8 7 7
21 20 19 20 21 21 20 20 21 21 21 21 21 22 21 20 20 19 19 18 17 16 15 15 14 12 12 11 10 10 9 9 9 9 9 8 9 8 8 8 8 8 7 7 7 7 7 7 8 8 9 9 9 9 9 9 7 7 8 7 8 8 7 8 7 6 8 8 8 8 8 9 10 9 9 9 8 8 10 11 10 9 9 8 7
22 21 21 22 22 21 21 21 22 22 22 21 21 21 21 20 19 18 18 17 16 15 14 13 13 12 11 10 9 9 9 9 9 8 8 8 9 9 8 8 8 8 7 7 7 7 6 7 8 9 9 9 9 9 9 8 8 8 8 8 9 8 7 8 6 6 7 8 8 8 8 8 9 9 8 8 8 9 10 10 10 9 9 9 9
22 21 23 23 23 23 22 23 23 23 22 21 21 21 21 20 18 18 17 16 16 15 14 12 12 11 10 9 9 8 8 9 9 8 8 8 8 9 8 8 8 8 7 7 6 7 7 8 8 9 9 10 10 9 9 8 8 8 8 8 8 8 8 6 5 5 6 7 8 7 8 8 9 9 8 7 8 9 10 10 9 9 9 9 9
21 22 23 23 23 23 23 23 23 23 22 21 21 20 20 19 18 17 16 16 15 14 13 12 11 10 9 9 8 8 7 8 8 8 8 8 8 8 8 8 7 7 7 6 6 7 7 8 8 9 9 10 10 9 9 9 8 7 8 8 8 8 8 5 4 5 5 6 7 7 8 9 9 8 8 7 7 9 10 9 9 9 9 9 9
21 22 22 22 23 23 23 23 23 22 21 20 20 20 20 19 18 17 15 14 14 13 12 11 11 10 9 8 8 7 7 7 8 8 7 7 7 7 8 7 7 7 7 6 6 7 8 8 8 9 9 9 9 9 9 9 9 8 7 7 8 8 8 6 4 4 4 4 6 6 7 8 8 7 8 7 7 9 10 9 8 8 8 9 9
20 21 21 22 22 22 21 21 22 22 20 19 20 20 19 18 17 16 14 13 13 12 11 10 10 9 8 7 7 7 6 6 7 7 7 7 6 6 7 7 7 6 6 6 6 6 8 8 8 8 9 9 9 9 9 9 8 8 7 7 8 7 7 8 4 3 4 4 5 6 7 7 8 8 7 8 8 8 8 8 8 8 8 8 9
20 20 20 21 21 20 20 20 21 21 20 19 20 20 18 18 17 15 14 13 12 11 10 9 9 8 7 6 6 6 6 6 7 7 6 6 5 5 6 7 7 6 5 5 5 6 7 8 8 8 8 8 9 9 8 9 8 7 7 7 7 7 8 8 5 4 3 4 4 5 6 6 7 7 7 7 7 7 8 8 7 7 8 8 8
20 19 19 20 20 19 19 20 21 20 19 19 19 19 18 17 16 15 14 12 11 10 9 9 8 8 6 6 5 6 6 5 6 6 6 5 5 5 6 7 6 5 5 4 5 6 7 8 8 8 8 8 8 8 7 8 8 6 6 6 6 8 9 7 5 4 3 4 4 4 4 5 6 6 6 6 6 7 7 8 7 7 7 8 8
19 19 19 19 19 18 18 19 20 20 19 18 18 18 17 17 15 14 13 12 11 10 9 8 8 7 6 6 5 6 5 5 5 5 5 4 4 4 5 6 5 4 4 4 5 6 7 8 7 7 8 8 8 8 8 8 7 6 5 7 7 8 7 6 5 5 4 4 4 4 3 4 6 5 5 5 5 6 6 7 7 6 6 8 8
19 19 19 19 19 19 18 18 19 20 19 18 18 18 18 17 15 14 13 12 11 10 9 8 8 7 7 6 5 5 5 4 5 4 3 4 3 3 5 5 5 4 4 4 5 6 7 7 6 6 8 8 9 9 7 8 7 7 7 8 8 7 5 5 5 5 5 4 3 3 2 3 5 4 4 4 4 5 5 6 7 7 6 7 7
20 20 19 19 20 19 19 18 19 19 19 18 18 17 18 17 15 14 13 11 11 10 9 8 8 8 7 6 5 5 4 4 4 4 3 4 2 2 4 4 4 3 3 4 5 6 5 5 4 5 7 8 8 6 5 6 7 7 8 8 6 6 5 5 4 4 4 3 3 3 2 3 4 3 3 4 4 5 5 6 6 6 6 7 7
21 21 20 20 20 19 19 19 18 19 19 17 17 17 17 17 15 14 13 12 11 10 10 9 9 8 8 7 5 5 4 4 3 3 3 3 2 2 3 3 4 3 3 4 4 4 3 3 4 5 6 6 6 4 3 4 4 5 6 6 5 5 5 5 4 4 3 3 4 3 2 2 3 3 3 4 5 5 5 6 5 5 6 6 7
22 21 21 20 20 20 19 19 19 20 19 17 16 16 17 16 15 14 13 12 12 11 11 10 9 8 7 6 5 5 4 4 3 2 2 2 1 1 2 3 3 3 5 3 3 3 2 3 4 5 4 3 4 4 4 4 3 4 5 5 5 5 5 5 5 4 3 3 4 3 2 1 1 2 3 4 6 6 6 6 5 5 6 7 7
21 21 21 21 20 20 20 20 19 20 19 17 16 16 16 16 15 14 13 12 12 11 11 10 9 8 7 6 5 5 5 4 3 3 2 2 2 1 1 3 2 2 4 3 2 2 2 3 3 3 2 3 4 3 4 4 3 4 5 5 5 4 4 5 6 5 4 4 3 3 2 1 1 2 3 4 5 7 7 7 6 5 6 7 7
20 20 21 22 22 21 21 20 20 20 19 17 16 16 16 15 14 14 13 12 11 11 10 10 9 9 8 6 5 5 5 4 4 3 3 3 2 1 2 2 2 2 2 2 2 2 1 2 2 2 3 3 3 3 3 3 3 3 4 4 4 4 4 5 6 5 5 5 3 2 2 1 1 1 3 4 4 6 8 8 7 5 5 5 5
21 21 21 22 23 22 22 21 20 20 19 17 16 15 15 15 14 13 13 12 11 10 10 9 9 9 7 6 6 5 5 5 4 4 3 3 2 1 2 2 1 2 2 1 1 1 1 1 2 2 3 2 2 2 1 2 2 2 3 4 4 4 4 5 5 5 5 4 2 2 2 1 1 1 3 4 4 5 7 7 6 6 6 5 5
21 21 21 22 23 23 23 22 21 20 19 18 16 15 15 15 14 13 13 12 11 10 10 9 8 8 8 7 6 5 5 5 5 4 4 3 3 2 2 1 1 2 1 1 1 1 1 1 1 1 2 2 2 2 1 1 2 1 3 3 3 4 4 4 5 4 4 3 2 2 3 2 1 2 2 3 5 6 6 6 6 6 7 7 6
22 22 21 22 23 24 24 22 21 20 19 18 17 15 15 15 14 13 13 12 11 10 9 9 8 8 8 8 6 5 5 5 5 4 4 3 3 2 2 1 1 1 1 1 1 1 0 1 0 1 2 2 2 2 2 1 2 1 2 2 2 3 3 4 4 3 3 3 1 1 3 3 1 2 2 2 5 6 5 6 6 7 7 7 7
24 24 22 21 22 23 23 23 22 20 19 19 17 16 15 15 14 13 13 12 12 10 9 9 8 8 8 8 8 6 6 5 5 4 3 3 3 3 2 1 1 1 1 1 1 1 1 1 1 1 1 2 2 1 2 1 2 0 1 1 1 3 3 3 3 3 2 3 1 0 2 3 2 2 2 2 4 5 5 6 6 7 7 7 7
25 25 24 22 22 23 23 23 22 21 20 19 17 17 16 15 15 14 13 13 12 11 10 10 9 9 8 9 9 8 7 5 5 4 4 3 3 3 2 2 1 1 1 0 1 1 1 1 1 1 1 2 1 1 2 2 1 0 1 1 1 2 3 2 2 3 2 2 2 2 1 3 3 3 2 0 3 5 5 5 6 6 6 7 7
25 26 25 23 23 23 23 23 22 21 20 19 18 17 16 16 15 14 14 13 13 12 11 10 10 9 8 9 9 9 8 6 5 5 5 4 4 4 3 2 2 1 1 0 0 1 1 1 1 1 1 1 1 1 2 2 1 1 0 1 1 1 2 2 3 4 3 1 3 3 3 4 4 4 4 2 2 5 5 5 5 5 6 6 7
26 27 26 25 24 23 23 23 23 22 21 20 18 18 17 16 15 14 14 13 13 13 12 11 10 9 9 9 10 10 9 7 6 6 5 5 5 5 4 3 3 2 2 1 1 1 0 1 0 1 2 2 2 1 1 2 1 1 1 0 1 1 1 2 3 4 2 2 4 3 3 4 3 4 5 5 3 4 4 5 6 7 7 6 7
25 26 27 26 25 24 23 22 23 23 22 20 19 18 17 16 15 14 14 14 13 12 12 11 10 10 9 10 10 10 9 8 7 6 6 6 5 5 4 4 3 2 2 2 1 1 1 1 1 2 2 2 2 1 2 2 2 1 1 1 1 2 1 3 4 3 2 3 4 4 4 4 4 3 4 5 5 4 5 6 7 7 7 6 7
23 25 27 27 26 25 23 23 23 23 22 20 19 17 17 15 15 14 13 14 13 12 12 11 11 10 9 10 11 10 10 9 8 6 6 6 5 5 4 3 3 2 2 2 2 2 1 1 1 2 2 2 1 1 2 2 2 1 1 1 2 2 2 4 2 2 3 4 4 4 4 4 4 4 3 4 5 4 5 6 7 7 7 7 7
23 24 26 27 26 25 24 24 24 24 23 21 19 17 16 15 15 14 14 13 13 12 12 11 11 11 10 10 11 11 10 9 8 8 7 7 6 5 3 3 2 2 2 2 2 2 2 2 2 2 2 2 2 2 2 2 1 1 1 1 2 2 3 4 2 3 5 4 4 5 5 5 4 4 4 4 4 4 5 6 6 7 8 7 7
23 24 26 27 26 25 25 24 24 25 24 22 21 19 17 16 15 14 14 14 13 13 12 12 11 11 11 11 11 12 11 10 9 9 8 7 7 5 4 3 3 3 2 3 4 3 2 2 2 2 2 2 3 3 2 2 2 1 0 1 2 2 3 3 1 4 5 4 5 6 6 6 5 4 4 4 4 4 4 4 4 6 7 7 8
23 24 25 26 26 26 25 24 24 25 25 24 23 21 19 17 16 16 15 15 14 13 12 12 12 12 12 11 11 11 11 11 10 10 9 8 7 6 5 4 4 3 3 4 4 3 3 2 2 1 1 3 3 3 3 3 3 2 1 1 3 2 2 3 2 2 4 5 5 5 6 6 5 4 3 4 4 4 3 2 3 4 4 5 6
24 24 25 26 25 25 24 24 23 24 25 24 23 21 20 19 18 17 17 16 15 14 13 13 13 13 13 12 12 12 11 11 11 10 9 9 8 7 6 5 5 5 4 5 5 4 4 3 2 1 0 2 3 4 4 4 3 2 1 2 3 2 2 2 2 2 3 4 4 4 5 5 5 5 4 4 4 4 3 2 3 3 3 1 3
24 24 26 26 25 24 24 24 23 24 24 24 23 22 21 21 19 19 18 18 17 15 14 14 14 14 13 12 13 12 11 11 11 10 10 9 8 7 6 6 6 6 6 6 5 4 4 3 2 2 1 1 2 3 3 3 3 3 2 2 3 3 2 2 2 3 4 4 4 4 4 5 6 6 5 4 4 4 4 3 3 3 2 1 1
24 25 26 27 26 25 25 25 24 24 24 25 24 24 23 22 21 20 19 18 18 16 15 15 14 14 13 12 12 12 11 11 11 10 10 9 8 7 7 7 7 6 6 6 5 5 5 3 2 2 1 1 1 2 3 2 2 3 3 3 3 3 3 3 3 3 3 4 4 4 4 5 6 6 5 5 5 5 5 4 4 4 3 2 1
25 25 26 27 26 26 26 25 24 24 25 26 25 24 23 21 20 19 18 17 17 17 16 15 14 13 13 13 13 12 11 11 11 11 10 9 9 8 7 7 7 7 6 6 6 6 5 4 2 2 0 1 2 3 2 1 2 4 4 5 5 4 3 3 3 3 3 5 4 5 5 5 6 6 6 6 6 6 6 6 5 5 4 3 3
26 26 26 26 26 27 26 25 25 26 26 26 25 23 22 20 19 18 17 16 15 16 15 14 14 14 13 13 14 13 12 12 11 11 11 10 10 9 8 7 7 7 6 6 6 6 6 4 3 2 1 1 2 4 2 2 2 5 4 4 4 4 4 3 3 3 4 5 4 5 5 5 7 6 6 7 7 6 6 6 6 5 5 4 4
26 26 26 27 27 27 27 26 26 26 26 26 25 23 21 20 18 16 15 14 13 13 14 13 13 14 14 14 14 14 14 13 12 12 11 10 10 10 9 8 8 7 7 6 6 7 6 5 4 3 2 1 2 4 3 2 2 5 3 2 2 2 3 4 5 3 4 5 4 5 6 5 6 6 5 7 6 6 6 6 6 5 5 5 4
27 27 27 27 26 27 28 27 26 26 25 26 25 23 20 20 18 15 14 13 13 13 14 15 15 15 15 15 14 15 15 14 13 13 12 11 11 10 9 8 8 8 8 8 7 8 7 5 4 4 3 2 1 3 3 3 3 3 2 2 1 1 2 5 6 4 3 4 5 5 5 5 6 5 4 6 6 5 5 5 5 5 5 5 5
27 27 28 27 26 26 27 27 26 25 24 25 25 24 22 21 20 18 17 17 16 16 16 16 16 16 16 15 15 15 15 15 15 14 13 12 11 11 10 9 8 8 8 8 8 8 7 6 5 5 4 2 1 2 3 5 4 3 3 1 1 2 3 3 4 4 3 3 4 5 5 4 5 5 4 4 5 4 5 4 4 4 4 4 5
27 27 27 27 27 26 26 27 26 24 24 24 25 25 23 22 22 22 21 20 18 18 17 16 16 15 15 15 15 15 16 16 15 15 15 14 13 12 11 10 10 9 9 9 9 8 6 6 6 5 4 4 3 3 4 6 5 5 5 3 1 1 2 2 2 3 4 4 3 4 5 5 4 4 4 3 4 4 4 3 3 3 3 3 4
27 27 26 27 28 27 27 27 26 24 24 24 26 27 24 23 24 23 22 21 20 17 16 16 15 15 15 15 15 14 16 17 17 16 16 16 15 13 12 11 11 10 10 10 10 8 6 6 7 6 5 5 5 5 5 6 6 6 6 5 4 2 2 3 3 2 2 3 4 5 5 6 5 4 4 3 3 4 4 2 2 2 2 2 3
27 28 28 27 27 27 26 27 27 25 24 25 26 27 26 24 24 23 21 20 19 17 15 15 16 15 15 16 16 15 15 17 18 17 16 16 16 15 14 13 12 11 11 11 10 8 7 7 8 7 7 6 6 6 6 6 6 6 7 6 5 4 4 5 4 4 3 2 3 4 5 5 5 5 5 4 3 3 4 4 3 2 2 2 2
28 28 27 26 26 27 26 27 28 26 25 26 27 27 27 25 23 23 22 20 19 17 15 15 16 16 16 16 16 16 15 16 17 18 17 17 17 16 15 14 14 13 12 11 10 9 9 9 8 8 8 7 6 7 7 7 7 6 7 7 6 5 5 4 5 6 5 3 2 3 6 7 7 7 7 6 5 5 5 4 4 3 2 1 2
27 27 26 26 26 26 27 28 28 26 25 26 27 27 27 25 24 24 24 22 20 19 18 17 17 17 17 17 16 16 16 16 16 17 18 18 18 17 16 15 14 13 12 12 12 10 10 9 9 8 8 8 8 8 8 8 8 7 7 7 7 6 5 5 5 5 5 4 4 4 4 5 4 5 6 6 5 6 5 5 5 4 2 2 2
Wind_Direction
129 132 137 139 135 142 144 143 144 140 138 137 136 136 134 132 130 130 129 129 129 126 124 124 124 121 117 115 115 113 111 110 107 104 102 101 100 101 104 101 100 100 100 101 102 103 101 100 99 98 96 94 92 90 90 91 92 91 89 87 86 85 87 88 88 86 85 91 102 109 110 109 107 105 106 110 113 117 114 109 110 111 112 109 104
137 134 137 142 138 142 142 140 140 138 138 137 137 137 135 132 131 129 130 130 128 126 126 125 123 120 118 117 116 113 111 109 106 104 102 101 100 102 100 96 95 92 91 94 97 98 98 98 98 97 96 94 93 93 94 94 96 95 91 90 89 87 89 92 92 89 87 93 103 109 108 106 107 108 113 117 117 119 115 107 111 114 112 111 107
138 134 137 145 143 141 138 139 138 137 137 135 136 137 135 133 131 129 130 130 129 129 128 125 123 122 120 118 117 114 111 108 107 104 102 99 99 98 95 93 93 89 87 91 93 94 96 98 98 96 95 93 93 96 98 98 98 98 94 90 88 87 89 92 96 95 92 96 106 111 109 109 107 110 117 119 117 116 114 109 113 117 112 112 112
137 134 138 146 145 139 137 139 137 135 134 133 135 136 136 133 132 131 132 132 132 132 128 126 125 123 121 120 118 114 112 109 106 103 101 98 96 96 95 93 90 89 88 88 89 89 91 95 96 95 95 93 95 96 96 95 94 95 96 92 88 86 85 90 96 100 101 100 105 107 109 111 107 113 117 114 113 111 110 112 116 116 111 112 114
136 136 140 144 143 140 138 137 134 134 132 131 134 136 137 135 134 134 134 135 137 134 130 128 125 123 122 121 118 115 112 108 106 103 100 97 95 95 95 93 89 89 88 86 86 85 84 86 88 89 94 95 97 100 96 91 90 90 94 94 90 87 83 87 92 97 105 104 101 101 105 110 110 114 116 113 110 108 109 111 112 111 112 115 116
136 137 140 141 144 142 138 135 134 133 131 132 136 138 138 137 137 137 137 138 139 135 131 128 125 125 124 122 117 114 112 108 105 101 99 97 96 94 92 91 87 86 86 85 85 85 83 82 81 79 86 91 92 101 103 96 89 85 86 87 86 87 86 85 88 90 101 107 103 100 95 99 109 111 111 111 110 110 109 109 107 109 114 115 117
137 140 143 142 144 144 138 135 136 133 132 136 139 141 141 141 141 140 141 140 139 135 131 128 126 127 125 121 116 112 109 106 102 98 97 95 94 92 89 87 83 83 83 82 83 84 82 80 78 75 79 85 86 92 99 96 87 83 79 79 82 86 88 81 87 94 97 105 103 107 109 105 110 110 109 110 110 109 108 109 107 110 114 112 118
140 144 146 144 146 147 140 138 138 135 136 140 143 144 145 144 144 143 143 141 138 135 131 129 129 128 125 119 114 109 105 101 99 97 95 92 91 89 86 83 80 79 80 80 81 81 79 79 77 75 76 82 84 86 90 90 86 85 78 76 81 85 87 80 87 92 87 89 91 107 120 114 109 112 116 112 108 108 109 108 108 112 116 116 121
142 145 146 144 148 149 143 142 140 139 143 145 148 148 148 146 145 143 142 142 138 136 133 131 131 128 123 117 113 108 103 100 97 96 94 93 90 87 85 82 78 75 76 78 78 78 78 76 76 76 75 78 81 85 87 89 90 93 90 84 87 90 89 84 85 84 82 89 96 112 112 106 106 114 119 113 106 105 109 109 110 113 115 117 118
144 147 147 145 150 151 145 145 142 142 147 149 152 152 150 147 144 142 142 141 138 137 134 132 132 128 122 117 114 109 104 101 99 97 95 93 88 85 83 82 79 75 75 75 75 74 73 73 75 75 74 76 79 85 87 90 92 90 91 90 95 97 91 82 81 81 89 94 104 121 114 110 111 116 119 114 107 102 108 112 112 113 114 118 120
145 146 147 147 151 150 147 147 145 146 150 152 155 155 150 146 144 145 144 141 137 138 137 135 133 128 123 120 119 113 107 103 102 99 95 92 86 82 80 80 78 77 77 75 74 73 74 75 78 77 75 76 78 84 88 91 89 83 83 87 90 93 94 84 78 83 91 94 100 108 109 112 113 120 124 116 111 102 101 102 101 103 107 115 120
147 146 144 149 154 150 150 150 150 153 154 156 157 156 150 146 146 148 146 141 138 140 139 137 134 131 127 126 125 116 110 105 101 98 95 91 85 83 81 81 78 77 79 77 74 74 78 79 83 82 77 76 75 80 85 87 86 80 80 84 84 84 94 87 79 84 89 95 96 99 104 110 115 124 126 116 112 103 96 95 93 92 94 102 110
147 146 144 148 154 153 155 154 156 159 157 158 158 156 150 147 148 149 147 142 142 144 142 139 135 133 131 131 127 119 113 106 101 96 94 90 86 84 81 82 80 77 76 77 74 73 79 85 88 84 79 75 73 76 81 83 81 76 75 79 81 79 87 85 77 80 85 92 96 101 105 112 120 121 119 117 117 112 103 96 93 90 86 89 95
147 145 144 147 151 155 158 158 159 159 159 159 156 155 151 149 149 148 147 147 148 147 144 141 137 135 133 134 129 123 116 107 101 95 94 93 89 86 82 80 79 78 75 75 75 73 78 86 86 82 79 75 71 72 75 79 77 73 72 74 78 81 84 81 72 75 79 89 98 100 100 113 123 119 121 127 126 120 112 102 95 92 88 85 85
148 146 146 147 151 156 159 160 160 158 158 158 155 154 153 152 150 149 150 151 151 149 148 144 141 137 135 134 130 126 118 109 100 95 95 93 90 88 84 81 82 81 77 75 79 80 80 82 82 79 78 77 74 70 71 76 78 74 71 72 76 85 93 92 76 74 74 84 97 100 102 114 121 122 128 131 126 119 113 106 99 95 92 88 85
149 147 147 148 151 154 158 160 160 158 157 157 156 155 155 155 152 151 152 154 154 152 152 147 144 139 136 133 130 129 122 114 101 95 95 92 89 87 84 83 85 84 80 77 79 84 83 82 81 80 77 77 76 72 71 71 76 75 68 71 77 84 100 100 83 77 74 81 95 100 101 105 109 111 115 119 121 119 114 109 105 101 97 94 91
150 149 149 150 152 154 156 159 160 160 159 159 158 157 157 155 154 154 154 157 157 157 155 150 146 141 138 132 127 127 125 116 102 97 95 93 87 82 82 84 86 83 82 78 76 82 84 85 85 82 79 78 76 72 73 73 75 76 68 69 77 84 99 98 86 82 77 75 86 97 100 100 106 106 106 110 116 118 117 114 110 107 102 98 96
153 152 151 152 153 155 156 159 161 161 160 160 160 160 159 157 158 157 159 162 162 162 157 153 148 145 142 134 130 126 125 118 104 99 95 93 86 80 79 80 82 80 80 80 81 84 85 88 88 86 83 79 76 74 76 78 78 77 73 69 76 85 92 96 92 89 83 77 81 91 101 101 106 110 108 109 117 121 121 123 122 117 109 103 100
157 155 155 155 156 158 157 160 162 161 160 160 161 163 162 160 162 161 164 166 167 166 160 158 152 151 149 144 139 125 125 120 107 100 94 91 87 80 75 75 78 79 76 78 88 90 89 89 87 84 79 74 72 72 74 78 79 77 76 72 80 85 84 89 95 100 91 80 80 79 96 104 104 113 115 116 127 127 127 134 130 124 118 111 108
163 160 159 159 160 160 160 162 163 164 163 162 163 166 167 166 167 167 168 170 173 172 165 163 160 158 157 159 148 129 129 122 107 104 98 91 88 86 84 79 76 82 82 83 97 98 96 92 85 71 66 69 64 61 67 73 77 77 76 77 82 82 81 90 99 100 89 83 88 79 89 108 111 126 135 131 132 125 130 138 135 136 130 119 117
168 167 164 163 165 164 164 166 166 167 166 165 165 167 171 171 171 173 174 177 179 178 173 171 168 166 167 169 156 143 146 135 118 116 110 94 85 88 91 84 81 87 92 105 111 108 107 98 81 63 58 59 58 54 59 66 72 77 78 76 73 71 77 93 98 92 92 98 96 87 93 109 113 127 142 140 136 131 132 140 145 151 143 131 126
172 171 168 167 168 168 170 170 169 170 168 167 166 169 173 173 175 178 179 182 182 181 180 179 179 176 178 177 167 162 153 139 130 127 122 113 118 106 91 89 92 92 106 128 128 121 116 96 70 58 55 52 57 54 46 57 68 73 70 69 70 69 72 82 92 93 100 101 84 92 117 115 115 119 130 143 152 150 144 150 158 163 158 143 134
174 173 171 171 172 172 174 175 172 171 171 169 168 171 174 175 178 180 182 185 185 185 186 187 188 186 185 182 174 170 151 143 150 144 135 129 143 127 97 93 97 95 107 122 126 129 113 77 53 53 55 46 58 66 52 54 68 72 65 65 66 64 64 69 78 87 98 103 97 108 129 123 139 141 135 155 168 167 161 163 165 172 171 155 147
176 175 172 173 175 175 176 178 176 174 175 173 172 174 175 178 182 184 186 187 190 191 192 192 192 192 188 184 174 167 158 157 166 159 142 129 139 115 77 80 90 90 100 110 109 112 84 56 44 53 59 37 42 57 63 57 57 66 61 59 59 56 58 61 60 73 94 111 107 104 120 134 161 162 156 170 178 173 174 175 170 175 173 169 163
177 176 174 176 176 176 177 178 180 178 180 178 178 180 178 182 185 188 191 190 194 194 194 193 193 195 190 185 176 169 170 172 174 174 168 157 160 149 89 88 106 108 109 129 119 98 90 77 56 47 38 30 38 36 44 39 36 54 55 52 52 52 53 58 57 60 79 99 95 81 99 121 98 155 176 184 188 180 180 182 181 183 176 178 175
179 180 178 179 179 179 178 178 181 183 184 183 183 183 182 186 188 190 192 193 195 193 193 193 193 195 192 189 181 176 181 183 182 186 184 171 174 166 122 106 118 126 121 134 118 97 100 90 67 38 18 28 42 30 25 25 30 43 53 55 54 54 51 58 59 57 73 92 89 68 81 95 81 162 190 188 199 192 187 187 186 187 179 180 181
180 183 181 180 181 183 181 180 182 184 186 186 186 186 187 190 190 190 193 195 194 193 195 193 192 193 192 192 189 188 188 188 187 193 193 175 181 167 123 126 123 118 121 122 115 103 93 62 52 46 38 39 42 36 23 37 48 38 52 61 65 65 53 53 57 59 73 86 90 72 67 50 35 283 228 191 194 197 194 190 184 182 180 182 189
181 184 183 181 183 184 184 185 184 184 186 187 188 188 191 193 193 192 194 196 195 195 197 193 192 193 193 195 197 199 195 193 192 193 196 184 182 174 147 163 136 113 124 123 109 96 94 65 41 33 43 39 33 29 348 79 82 52 65 68 71 72 53 50 55 59 76 83 92 81 67 65 75 291 272 199 186 195 198 189 180 182 188 188 192
185 185 184 183 185 184 185 187 186 185 186 188 191 192 193 196 196 195 195 196 198 199 199 195 194 195 196 197 199 203 201 198 196 196 196 189 183 185 188 173 138 129 136 118 99 84 77 77 35 6 28 13 15 5 297 100 91 71 89 75 74 79 60 56 56 46 70 80 76 69 60 65 89 288 300 218 191 192 196 186 181 186 194 197 195
188 187 185 184 184 185 186 187 186 186 187 189 193 194 194 196 197 198 196 196 200 202 200 201 200 199 198 198 201 204 205 201 198 200 199 197 191 192 199 185 159 153 158 112 89 51 2 37 25 11 17 350 3 343 302 349 66 63 133 82 67 80 66 68 69 46 61 88 116 125 58 70 64 331 321 237 197 189 191 188 185 186 191 195 201
189 188 187 187 185 186 188 188 188 188 189 191 193 195 195 196 198 199 198 198 201 202 203 207 205 203 201 201 203 203 206 206 200 199 201 201 194 195 198 195 182 168 194 138 77 11 7 22 23 6 353 335 336 321 323 344 11 312 190 119 63 69 65 58 63 43 32 83 128 159 132 92 61 26 19 353 196 189 191 194 193 191 190 190 198
189 190 188 187 187 188 189 188 189 189 191 193 193 195 196 197 198 200 201 200 201 202 205 208 206 206 203 202 204 204 207 208 205 203 205 203 197 199 195 195 198 189 209 203 36 356 11 1 11 333 303 301 308 330 340 332 336 333 224 147 78 60 67 40 38 40 25 77 132 149 135 102 66 54 61 70 163 178 186 198 199 198 200 193 196
189 190 188 188 189 190 190 189 190 191 192 195 195 196 197 198 199 201 203 202 202 204 206 207 206 206 205 205 207 209 209 208 210 209 212 212 203 203 198 200 205 196 210 212 224 224 196 293 318 291 290 286 299 352 335 324 344 347 342 79 84 62 76 68 45 38 30 88 127 138 132 133 115 72 67 73 108 155 181 203 206 204 208 203 201
188 189 188 188 189 190 190 191 191 192 194 196 197 197 198 198 201 202 202 203 204 205 206 206 206 205 205 209 210 212 212 210 212 213 219 223 214 210 205 205 208 206 216 211 215 209 204 253 271 280 287 287 300 350 337 341 352 357 5 6 75 68 79 77 52 38 49 83 110 123 128 150 156 108 80 81 89 127 173 201 209 207 211 212 214
186 187 188 187 188 189 190 191 192 194 195 196 198 199 199 199 201 201 201 202 204 206 207 206 205 204 204 209 210 210 213 213 214 217 224 229 226 220 211 208 212 225 233 225 234 223 210 232 256 272 264 277 320 348 333 347 354 6 14 15 65 77 93 83 64 66 80 88 97 100 104 116 122 110 106 97 88 115 162 193 204 204 209 214 224
187 186 187 186 188 188 189 190 191 194 195 196 198 200 200 201 202 202 202 202 204 205 207 206 204 204 204 207 210 209 213 217 216 220 225 230 231 226 217 217 225 255 265 267 265 243 223 234 257 274 268 303 343 352 344 359 12 28 7 43 70 87 101 93 104 92 84 92 96 89 93 96 93 91 100 105 100 114 150 189 200 201 204 208 221
187 186 185 185 187 186 188 191 190 193 195 195 197 198 200 201 203 203 203 204 205 206 206 207 205 204 205 206 209 210 213 217 218 221 225 228 231 227 222 220 228 256 269 275 271 259 244 243 262 276 296 331 340 354 11 13 22 51 108 130 100 100 100 99 111 97 100 106 96 87 86 87 88 90 97 104 109 113 132 181 190 193 200 207 218
187 187 185 183 185 185 186 190 190 191 194 194 195 197 199 200 203 204 205 206 208 209 207 208 207 206 206 205 207 209 211 216 218 221 223 227 231 228 225 224 231 249 261 266 266 265 261 250 247 258 322 339 340 354 13 11 8 35 50 111 118 127 111 111 114 115 131 121 103 96 88 85 88 89 93 100 112 122 136 171 165 168 183 205 220
188 188 187 184 184 184 185 188 188 189 191 193 194 196 198 200 203 205 207 209 210 211 210 209 210 209 210 207 208 210 212 216 217 218 221 224 227 227 228 229 236 243 250 257 257 257 257 252 243 223 343 343 349 4 15 10 4 21 29 94 122 145 117 111 135 151 146 124 110 102 91 91 88 84 85 90 103 118 135 155 148 153 147 190 240
189 188 188 188 186 185 185 187 187 187 187 190 192 194 198 200 203 205 207 210 211 212 213 213 212 212 212 208 209 212 212 214 215 217 219 221 223 225 227 229 236 239 243 252 254 252 247 240 234 195 165 357 25 34 25 12 23 43 45 131 139 153 143 128 156 159 149 131 118 107 95 92 87 83 80 79 87 98 112 119 111 126 123 68 277
189 188 189 190 189 187 187 188 187 186 187 189 192 195 197 199 201 204 206 206 208 209 212 213 213 213 211 209 210 211 212 213 214 214 215 217 220 225 227 227 233 236 240 249 251 251 240 229 221 197 187 50 71 78 67 58 86 84 98 136 140 148 147 153 165 163 151 136 130 120 103 91 86 83 82 78 81 91 100 103 97 106 117 114 102
190 190 190 191 191 191 192 190 188 188 191 192 193 195 197 198 198 201 203 202 203 205 208 211 212 212 209 207 210 211 212 213 214 213 213 215 218 225 227 226 231 233 238 248 252 250 237 224 219 212 187 72 83 87 107 157 115 97 108 126 133 137 138 157 164 165 159 146 146 134 111 95 87 82 87 90 89 94 96 97 97 100 105 110 112
189 191 193 193 193 194 195 193 190 191 194 194 193 194 196 196 197 197 200 202 203 205 208 209 208 208 207 207 212 214 213 214 214 213 214 216 217 222 227 227 229 229 236 244 250 250 234 219 219 215 200 141 119 106 151 253 90 104 130 140 144 144 137 168 172 165 162 149 147 138 122 104 92 88 96 99 96 94 92 95 99 99 96 96 105
190 191 193 195 195 196 196 195 194 194 195 195 195 195 194 194 196 197 200 205 207 205 206 207 205 206 207 209 213 216 215 215 215 214 213 214 215 220 227 230 228 227 232 238 242 243 230 216 215 213 216 194 143 129 152 234 128 137 163 127 135 168 149 166 167 159 158 151 158 146 128 116 105 106 112 106 100 93 90 94 98 97 93 91 94
192 192 193 196 197 198 197 196 196 196 196 196 194 192 191 191 192 193 197 204 209 206 203 204 204 205 209 210 211 213 213 214 213 214 213 213 215 219 226 230 229 229 233 237 239 236 224 214 210 210 220 219 168 142 146 180 177 177 193 114 125 221 133 152 156 151 167 161 164 151 134 132 122 117 118 114 112 103 92 91 92 93 91 88 89
192 193 193 195 197 198 197 197 197 198 198 196 192 189 189 189 188 190 195 200 207 208 204 204 204 206 211 212 210 209 210 211 212 213 214 214 215 218 223 229 230 231 234 238 239 232 222 214 210 209 218 209 189 175 161 173 178 188 213 210 341 28 98 150 158 149 178 180 169 166 158 156 140 134 141 135 135 122 100 96 95 95 95 95 98
191 192 193 194 196 196 195 196 197 198 198 195 191 189 190 192 193 196 200 203 207 209 208 208 208 208 210 209 209 207 207 209 210 212 214 215 218 219 222 227 230 231 234 238 239 233 222 212 209 210 211 192 180 196 184 170 172 187 200 210 251 34 100 163 181 150 171 184 187 191 182 175 171 162 161 166 162 138 110 103 101 100 104 108 110
190 189 192 194 195 195 194 194 195 197 196 194 192 192 193 195 198 202 205 208 211 211 208 208 208 207 206 205 206 206 207 210 211 212 214 216 218 220 221 223 227 229 232 239 240 234 224 212 207 206 207 199 186 197 199 180 179 181 181 195 204 199 193 203 215 210 189 177 184 206 199 180 190 196 185 195 181 141 137 140 118 108 112 127 133
189 189 191 192 193 194 193 193 194 195 195 193 192 194 196 198 201 204 207 210 212 212 207 205 204 204 203 203 204 204 206 210 211 212 214 215 218 221 222 221 223 225 230 238 238 230 223 216 210 206 205 207 196 197 203 197 198 180 167 188 198 190 209 215 216 227 240 220 176 189 194 190 203 208 205 214 205 182 185 180 167 160 129 139 163
192 191 190 190 191 192 193 194 194 194 195 194 193 197 199 199 202 204 206 207 206 207 206 203 200 201 203 204 205 206 208 210 212 213 215 217 218 221 223 222 222 225 231 235 234 228 224 217 215 211 205 206 201 202 202 198 207 193 167 179 193 193 205 213 215 215 220 235 228 198 185 193 210 204 203 215 209 207 212 203 205 203 168 165 190
192 190 189 190 191 192 193 194 195 194 194 194 195 200 201 200 204 205 206 205 201 201 202 202 199 199 203 205 207 209 211 213 214 214 216 218 218 220 221 222 221 223 227 230 230 230 226 220 214 210 207 208 205 206 207 199 199 195 183 182 191 196 197 206 219 218 216 215 222 234 201 187 212 198 193 213 216 215 220 222 234 236 208 211 217